DW7890 Weather Reports


Display with metric or nautical units.
time (UTC)temp
F
wind
direction
speed
MPH
gust
MPH
rain 1hr
in
rain 24hr
in
rain mn
in
humidity
%
barometer
mb
20260504220049 82 163 0.0 0.0 0.00 0.00 0.00 45 1001.0
20260504214550 82 161 0.0 0.0 0.00 0.00 0.00 47 1000.9
20260504213059 82 161 0.0 0.0 0.00 0.00 0.00 47 1001.0
20260504211547 82 173 0.0 0.0 0.00 0.00 0.00 47 1000.9
20260504210045 82 245 0.0 0.0 0.00 0.00 0.00 47 1001.1
20260504204548 81 163 1.0 14.0 0.00 0.00 0.00 48 1001.1
20260504203053 81 150 5.0 14.0 0.00 0.00 0.00 51 1001.4
20260504201538 80 180 5.0 9.0 0.00 0.00 0.00 53 1001.6
20260504200035 79 171 5.0 14.0 0.00 0.00 0.00 55 1001.9
20260504194530 77 162 4.0 8.0 0.00 0.00 0.00 59 1002.3
20260504193027 74 140 4.0 8.0 0.00 0.00 0.00 63 1002.3
20260504191524 73 159 4.0 9.0 0.00 0.00 0.00 65 1002.7
20260504190017 70 154 3.0 8.0 0.00 0.00 0.00 69 1002.8
20260504184515 68 146 3.0 7.0 0.00 0.00 0.00 71 1002.2
20260504183012 68 146 3.0 9.0 0.00 0.00 0.00 69 1002.6
20260504181514 69 139 3.0 7.0 0.00 0.00 0.00 65 1003.7
20260504180010 69 156 4.0 10.0 0.00 0.00 0.00 64 1003.4
20260504174508 69 157 3.0 12.0 0.00 0.00 0.00 64 1003.5
20260504173007 69 160 5.0 9.0 0.00 0.00 0.00 63 1003.7
20260504171504 68 159 3.0 8.0 0.00 0.00 0.00 67 1004.2
20260504160106 64 163 5.0 11.0 0.00 0.00 0.00 71 1004.6
20260504081527 59 167 0.0 0.0 0.00 0.00 0.00 76 1006.9
20260504050000 66 186 3.0 7.0 0.00 0.00 0.00 60 1007.0
20260504044606 66 166 0.0 3.0 0.00 0.00 0.00 60 1007.0
20260504043100 67 166 0.0 0.0 0.00 0.00 0.00 59 1007.1
20260504041558 68 166 0.0 4.0 0.00 0.00 0.00 56 1007.7
20260504040107 69 167 1.0 6.0 0.00 0.00 0.00 56 1007.8
20260504034627 69 161 4.0 8.0 0.00 0.00 0.00 55 1007.8
20260504033057 69 163 0.0 5.0 0.00 0.00 0.00 56 1007.2
20260504031556 69 163 2.0 6.0 0.00 0.00 0.00 56 1008.0
20260504030120 70 164 2.0 6.0 0.00 0.00 0.00 55 1008.2
20260504024559 70 172 1.0 4.0 0.00 0.00 0.00 53 1008.0
20260504023055 71 244 0.0 0.0 0.00 0.00 0.00 53 1008.0
20260504021557 71 244 0.0 0.0 0.00 0.00 0.00 53 1008.0
20260504020105 72 244 0.0 0.0 0.00 0.00 0.00 51 1007.9
20260504014558 72 244 0.0 0.0 0.00 0.00 0.00 50 1008.0
20260504013055 73 244 0.0 2.0 0.00 0.00 0.00 51 1007.9
20260504011551 73 244 0.0 4.0 0.00 0.00 0.00 48 1007.8
20260504010051 75 178 1.0 4.0 0.00 0.00 0.00 44 1007.5
20260504004551 76 179 1.0 5.0 0.00 0.00 0.00 44 1007.5
20260504003050 76 190 1.0 4.0 0.00 0.00 0.00 42 1007.5
20260504001602 77 184 1.0 5.0 0.00 0.00 0.00 41 1007.5
20260504000054 78 168 2.0 7.0 0.00 0.00 0.00 40 1007.6
20260503234548 78 188 3.0 7.0 0.00 0.00 0.00 39 1007.6
20260503233047 79 244 2.0 9.0 0.00 0.00 0.00 39 1007.7
20260503231551 79 241 0.0 11.0 0.00 0.00 0.00 38 1007.8
20260503230045 79 268 2.0 9.0 0.00 0.00 0.00 37 1007.9
20260503224543 79 173 3.0 8.0 0.00 0.00 0.00 36 1008.0
20260503223041 79 195 2.0 12.0 0.00 0.00 0.00 36 1008.1
20260503221544 79 246 5.0 14.0 0.00 0.00 0.00 37 1008.2